GW2584 Weather Reports


time (UTC)temp
C
wind
direction
speed
KPH
gust
KPH
rain 1hr
cm
rain 24hr
cm
rain mn
cm
humidity
%
barometer
mb
20260507160058 7 261 12.9 24.1 0.20 0.61 0.61 51 1019.1
20260507154601 7 188 4.8 17.7 0.23 0.56 0.56 51 1019.0
20260507153103 6 202 8.0 29.0 0.36 0.53 0.53 54 1018.6
20260507151558 7 302 3.2 8.0 0.41 0.46 0.46 55 1017.9
20260507150110 7 191 1.6 16.1 0.41 0.41 0.41 54 1018.5
20260507144559 7 206 12.9 25.7 0.33 0.33 0.33 51 1018.5
20260507143059 7 253 8.0 27.4 0.18 0.18 0.18 57 1018.0
20260507141605 7 182 9.7 22.5 0.05 0.05 0.05 57 1018.0
20260507140107 7 226 6.4 19.3 0.00 0.00 0.00 58 1018.1
20260507134559 7 210 8.0 24.1 0.00 0.00 0.00 56 1018.0
20260507133116 6 226 9.7 19.3 0.00 0.00 0.00 53 1018.0
20260507131557 5 202 6.4 17.7 0.00 0.00 0.00 58 1017.6
20260507130110 5 195 8.0 24.1 0.00 0.00 0.00 58 1017.5
20260507124634 5 176 8.0 22.5 0.00 0.00 0.00 57 1017.4
20260507123105 5 225 9.7 24.1 0.00 0.00 0.00 58 1017.1
20260507121600 4 231 9.7 24.1 0.00 0.00 0.00 59 1016.9
20260507120057 4 250 8.0 27.4 0.00 0.00 0.00 58 1016.9
20260507114610 3 0 0.0 0.0 0.00 0.00 0.00 59 1017.1
20260507113058 3 0 0.0 0.0 0.00 0.00 0.00 60 1017.5
20260507111555 3 0 0.0 0.0 0.00 0.00 0.00 61 1017.7
20260507110057 3 0 0.0 0.0 0.00 0.00 0.00 60 1017.4
20260507104558 3 0 0.0 0.0 0.00 0.00 0.00 61 1017.4
20260507103058 3 0 0.0 0.0 0.00 0.00 0.00 60 1017.3
20260507101559 3 0 0.0 0.0 0.00 0.00 0.00 60 1017.4
20260507100057 3 0 0.0 0.0 0.00 0.00 0.00 59 1017.6
20260507094555 3 0 0.0 0.0 0.00 0.00 0.00 60 1017.6
20260507093100 2 0 0.0 0.0 0.00 0.00 0.00 63 1017.3
20260507091559 2 0 0.0 0.0 0.00 0.00 0.00 63 1017.4
20260507090103 2 0 0.0 0.0 0.00 0.00 0.00 66 1017.4
20260507084600 2 0 0.0 0.0 0.00 0.00 0.00 62 1017.5
20260507083058 2 0 0.0 0.0 0.00 0.00 0.00 63 1017.5
20260507081600 2 0 0.0 0.0 0.00 0.00 0.00 64 1017.5
20260507080103 2 0 0.0 0.0 0.00 0.00 0.00 64 1017.6
20260507074615 1 0 0.0 0.0 0.00 0.00 0.00 64 1017.6
20260507073108 1 0 0.0 0.0 0.00 0.00 0.00 64 1017.9
20260507071559 1 0 0.0 0.0 0.00 0.00 0.00 67 1018.1
20260507070116 1 0 0.0 0.0 0.00 0.00 0.00 66 1018.1
20260507064615 1 0 0.0 0.0 0.00 0.00 0.00 67 1018.3
20260507063101 1 0 0.0 0.0 0.00 0.00 0.00 66 1018.4
20260507061555 1 0 0.0 0.0 0.00 0.00 0.00 66 1018.1
20260507060057 1 0 0.0 0.0 0.00 0.00 0.00 69 1017.9
20260507054557 1 0 0.0 0.0 0.00 0.00 0.00 69 1017.6
20260507053058 1 0 0.0 0.0 0.00 0.00 0.00 69 1017.6
20260507051600 0 0 0.0 0.0 0.00 0.00 0.00 70 1017.8
20260507050058 0 0 0.0 0.0 0.00 0.00 0.00 74 1017.9
20260507044559 1 0 0.0 0.0 0.00 0.00 0.00 70 1018.0
20260507043100 0 0 0.0 0.0 0.00 0.00 0.00 74 1018.1
20260507041559 0 0 0.0 0.0 0.00 0.00 0.00 73 1018.2
20260507040111 0 0 0.0 0.0 0.00 0.00 0.00 78 1018.4
20260507034618 0 0 0.0 0.0 0.00 0.00 0.00 82 1018.3
20260507033105 0 0 0.0 0.0 0.00 0.00 0.00 84 1018.2
20260507031628 -1 0 0.0 0.0 0.00 0.00 0.00 91 1018.3
20260507030101 -1 0 0.0 0.0 0.00 0.00 0.00 93 1018.1
20260507024558 -1 0 0.0 0.0 0.00 0.00 0.00 94 1018.0
20260507023057 -1 0 0.0 0.0 0.00 0.00 0.00 93 1017.9
20260507021556 -1 0 0.0 0.0 0.00 0.00 0.00 93 1017.8
20260507020058 -1 0 0.0 0.0 0.00 0.00 0.00 93 1017.5
20260507014602 0 0 0.0 0.0 0.00 0.00 0.00 92 1017.3
20260507013117 0 0 0.0 0.0 0.00 0.00 0.00 92 1017.3
20260507011607 0 0 0.0 0.0 0.00 0.00 0.00 92 1017.4
20260507010109 0 0 0.0 0.0 0.00 0.00 0.00 91 1017.6
20260507004559 0 0 0.0 0.0 0.00 0.00 0.00 91 1017.5
20260507003059 0 0 0.0 0.0 0.00 0.00 0.00 91 1017.7
20260507001557 0 0 0.0 0.0 0.00 0.00 0.00 90 1017.8
20260507000057 0 0 0.0 0.0 0.00 0.00 0.00 90 1018.0
20260506234559 0 0 0.0 0.0 0.00 0.00 0.00 90 1018.1
20260506233108 0 0 0.0 0.0 0.00 0.00 0.00 89 1018.1
20260506231605 0 0 0.0 0.0 0.00 0.00 0.00 89 1018.1
20260506230105 0 0 0.0 0.0 0.00 0.00 0.00 89 1017.8
20260506224556 0 0 0.0 0.0 0.00 0.00 0.00 88 1018.0
20260506223059 0 0 0.0 0.0 0.00 0.00 0.00 87 1018.0
20260506221604 0 0 0.0 0.0 0.00 0.00 0.00 87 1018.1
20260506220100 0 0 0.0 0.0 0.00 0.00 0.00 87 1018.4
20260506214603 -1 0 0.0 0.0 0.00 0.00 0.00 89 1018.5
20260506213101 -1 0 0.0 0.0 0.00 0.00 0.00 88 1018.7
20260506211609 -1 0 0.0 0.0 0.00 0.00 0.00 88 1018.8
20260506210058 -1 0 0.0 0.0 0.00 0.00 0.00 88 1018.9
20260506204559 -1 0 0.0 0.0 0.00 0.00 0.00 87 1019.1
20260506203055 -1 0 0.0 0.0 0.00 0.00 0.00 89 1019.1
20260506201558 -1 0 0.0 0.0 0.00 0.00 0.00 88 1019.2
20260506200055 -1 0 0.0 0.0 0.00 0.00 0.00 89 1019.4
20260506194556 -1 0 0.0 0.0 0.00 0.00 0.00 89 1019.4
20260506193055 -1 0 0.0 0.0 0.00 0.00 0.00 90 1019.4
20260506191555 -1 0 0.0 0.0 0.00 0.00 0.00 89 1019.6
20260506190059 0 0 0.0 0.0 0.00 0.00 0.00 89 1019.5
20260506184559 -1 0 0.0 0.0 0.00 0.00 0.00 88 1019.7
20260506183056 0 0 0.0 0.0 0.00 0.00 0.00 87 1019.8
20260506181556 -1 0 0.0 0.0 0.00 0.00 0.00 88 1019.9
20260506180058 -1 0 0.0 0.0 0.00 0.00 0.00 91 1020.0
20260506174554 -1 0 0.0 0.0 0.00 0.00 0.00 91 1020.0
20260506173108 -2 0 0.0 0.0 0.00 0.00 0.00 91 1019.9
20260506171610 -2 0 0.0 0.0 0.00 0.00 0.00 90 1019.9
20260506164618 -2 0 0.0 0.0 0.00 0.00 0.00 92 1019.6
20260506163106 -3 0 0.0 0.0 0.00 0.00 0.00 92 1019.5
20260506161559 -2 0 0.0 0.0 0.00 0.00 0.00 92 1019.3